Location: Ahausen
(50.4985°N, 8.2722°E)
Time: 00:39:04
(UTC+00:00)

CUTE 1.7 + AOD 2 - Pass Details

Date: 30 June 2022
Orbit: 589 x 608 km, 97.7° (Epoch: 07 August)

Event Time Altitude Azimuth Distance (km) Brightness Sun altitude
Rises 01:55:00 0° 33° (NNE) 2,856 ? -9.7°
Reaches altitude 10° 01:59:08 10° 73° (ENE) 1,938 ? -9.3°
Maximum altitude 02:00:01 11° 85° (E) 1,899 ? -9.3°
Drops below altitude 10° 02:00:54 10° 97° (E) 1,932 ? -9.2°
Sets 02:04:59 0° 138° (SE) 2,820 ? -8.8°
